FW2167 Weather Reports


time (UTC)temp
C
wind
direction
speed
KPH
gust
KPH
rain 1hr
cm
rain 24hr
cm
rain mn
cm
humidity
%
barometer
mb
20260503204204 7 347 3.2 4.8 0.00 0.00 0.00 98 1036.2
20260503203704 7 337 3.2 3.2 0.00 0.00 0.00 98 1036.1
20260503203204 7 269 3.2 8.0 0.00 0.00 0.00 98 1036.1
20260503202704 7 264 3.2 8.0 0.00 0.00 0.00 98 1036.1
20260503201204 6 310 3.2 8.0 0.00 0.00 0.00 98 1036.1
20260503200704 6 347 3.2 4.8 0.00 0.00 0.00 98 1035.9
20260503200204 6 228 3.2 4.8 0.00 0.00 0.00 98 1036.0
20260503195704 6 221 3.2 4.8 0.00 0.00 0.00 98 1035.9
20260503195205 6 205 0.0 3.2 0.00 0.00 0.00 98 1036.0
20260503193704 6 213 0.0 1.6 0.00 0.00 0.00 98 1035.8
20260503193204 6 241 0.0 3.2 0.00 0.00 0.00 98 1035.6
20260503192204 6 248 3.2 3.2 0.00 0.00 0.00 97 1035.7
20260503191204 6 270 1.6 4.8 0.00 0.00 0.00 97 1035.7
20260503190204 6 292 3.2 8.0 0.00 0.00 0.00 97 1035.3
20260503185704 5 272 4.8 9.7 0.00 0.00 0.00 97 1035.5
20260503185204 5 281 3.2 8.0 0.00 0.00 0.00 97 1035.3
20260503184705 5 301 3.2 8.0 0.00 0.00 0.00 97 1035.3
20260503184203 5 322 3.2 8.0 0.00 0.00 0.00 97 1035.2
20260503183705 5 255 4.8 11.3 0.00 0.00 0.00 97 1035.1
20260503183204 5 306 4.8 4.8 0.00 0.00 0.00 97 1035.0
20260503182204 5 299 3.2 4.8 0.00 0.00 0.00 97 1035.0
20260503181704 5 308 4.8 9.7 0.00 0.00 0.00 97 1035.0
20260503181204 5 292 6.4 9.7 0.00 0.00 0.00 97 1035.0
20260503180703 5 302 4.8 8.0 0.00 0.00 0.00 97 1034.9
20260503180204 5 299 4.8 11.3 0.00 0.00 0.00 97 1034.7
20260503175705 5 294 8.0 9.7 0.00 0.00 0.00 97 1034.7
20260503175204 5 299 6.4 9.7 0.00 0.00 0.00 96 1034.6
20260503174705 6 311 3.2 9.7 0.00 0.00 0.00 96 1034.9
20260503174203 6 293 4.8 8.0 0.00 0.00 0.00 96 1034.7
20260503173704 6 304 3.2 8.0 0.00 0.00 0.00 96 1034.6
20260503173204 6 299 4.8 8.0 0.00 0.00 0.00 96 1034.6
20260503172705 6 293 3.2 8.0 0.00 0.00 0.00 96 1034.5
20260503172204 6 288 3.2 4.8 0.00 0.00 0.00 96 1034.6
20260503171704 6 189 0.0 1.6 0.00 0.00 0.00 96 1034.7
20260503171204 6 216 0.0 3.2 0.00 0.00 0.00 96 1034.6
20260503170704 6 232 3.2 8.0 0.00 0.00 0.00 96 1034.7
20260503160205 6 223 1.6 3.2 0.00 0.00 0.00 94 1034.9
20260503150703 8 141 0.0 0.0 0.00 0.00 0.00 94 1035.1
20260503150204 8 16 0.0 0.0 0.00 0.00 0.00 94 1035.5
20260503130704 7 121 1.6 4.8 0.00 0.00 0.00 94 1035.7
20260503130204 7 75 1.6 4.8 0.00 0.00 0.00 94 1035.9
20260503120205 6 117 0.0 1.6 0.00 0.00 0.00 95 1035.8
20260503110704 6 296 1.6 3.2 0.00 0.00 0.00 94 1035.5
20260503110204 6 281 3.2 3.2 0.00 0.00 0.00 94 1035.4
20260503090204 6 234 0.0 0.0 0.00 0.00 0.00 91 1034.5
20260503081204 7 300 0.0 0.0 0.00 0.00 0.00 90 1034.2
20260503080704 7 300 0.0 1.6 0.00 0.00 0.00 90 1034.2
20260503080204 7 95 0.0 0.0 0.00 0.00 0.00 90 1034.3
20260503072703 8 290 0.0 1.6 0.00 0.00 0.00 88 1034.1
20260503072205 8 308 0.0 0.0 0.00 0.00 0.00 88 1034.1
20260503071204 8 141 0.0 1.6 0.00 0.00 0.00 88 1034.1
20260503070704 8 179 0.0 1.6 0.00 0.00 0.00 87 1034.1
20260503070204 9 287 0.0 1.6 0.00 0.00 0.00 87 1034.2
20260503060204 12 138 1.6 4.8 0.00 0.00 0.00 80 1034.0
20260503054704 12 123 1.6 4.8 0.00 0.00 0.00 78 1033.8
20260503053704 13 121 0.0 1.6 0.00 0.00 0.00 78 1033.7
20260503053205 13 251 0.0 3.2 0.00 0.00 0.00 77 1033.7
20260503052705 13 182 0.0 1.6 0.00 0.00 0.00 76 1033.8
20260503051704 14 126 0.0 1.6 0.00 0.00 0.00 75 1033.8
20260503051204 15 213 0.0 1.6 0.00 0.00 0.00 74 1033.9
20260503050704 15 143 0.0 1.6 0.00 0.00 0.00 73 1033.6
20260503050204 15 19 0.0 8.0 0.00 0.00 0.00 72 1033.5
20260503045704 16 342 4.8 8.0 0.00 0.00 0.00 70 1033.5
20260503045204 16 340 4.8 8.0 0.00 0.00 0.00 69 1033.7
20260503044704 16 338 4.8 9.7 0.00 0.00 0.00 69 1033.8
20260503044205 16 327 6.4 9.7 0.00 0.00 0.00 68 1033.5
20260503043704 17 328 8.0 9.7 0.00 0.00 0.00 67 1033.7
20260503043204 17 334 8.0 9.7 0.00 0.00 0.00 65 1033.6
20260503041204 17 344 8.0 9.7 0.00 0.00 0.00 63 1033.7
20260503040704 17 323 6.4 9.7 0.00 0.00 0.00 64 1033.7
20260503040204 17 339 3.2 8.0 0.00 0.00 0.00 63 1033.9
20260503035704 17 323 8.0 11.3 0.00 0.00 0.00 62 1033.7
20260503035205 17 323 9.7 11.3 0.00 0.00 0.00 62 1033.9
20260503034704 17 337 8.0 11.3 0.00 0.00 0.00 63 1033.6
20260503034204 18 345 6.4 11.3 0.00 0.00 0.00 61 1033.7
20260503033704 17 333 8.0 14.5 0.00 0.00 0.00 62 1033.8
20260503033204 17 305 6.4 9.7 0.00 0.00 0.00 64 1033.7
20260503032705 17 349 4.8 11.3 0.00 0.00 0.00 60 1033.8
20260503032204 17 333 8.0 12.9 0.00 0.00 0.00 60 1033.7
20260503031704 17 342 4.8 9.7 0.00 0.00 0.00 60 1033.8
20260503031204 17 314 6.4 9.7 0.00 0.00 0.00 61 1033.8
20260503030704 17 322 3.2 9.7 0.00 0.00 0.00 62 1034.0
20260503025704 17 290 1.6 9.7 0.00 0.00 0.00 64 1033.9
20260503025205 17 304 3.2 9.7 0.00 0.00 0.00 61 1033.9
20260503024704 17 326 4.8 12.9 0.00 0.00 0.00 59 1034.0
20260503023204 17 320 3.2 4.8 0.00 0.00 0.00 63 1034.1
20260503022704 17 318 3.2 8.0 0.00 0.00 0.00 63 1034.0
20260503022204 17 253 3.2 9.7 0.00 0.00 0.00 64 1034.1
20260503021704 17 336 8.0 12.9 0.00 0.00 0.00 62 1034.0
20260503020705 17 13 4.8 9.7 0.00 0.00 0.00 60 1034.3
20260503015704 17 22 9.7 12.9 0.00 0.00 0.00 60 1034.2
20260503015204 17 356 8.0 12.9 0.00 0.00 0.00 62 1034.3
20260503014704 17 335 8.0 14.5 0.00 0.00 0.00 60 1034.3
20260503014204 17 327 3.2 9.7 0.00 0.00 0.00 62 1034.3
20260503013704 18 260 3.2 9.7 0.00 0.00 0.00 63 1034.3
20260503013204 18 320 4.8 16.1 0.00 0.00 0.00 62 1034.2
20260503012204 17 328 4.8 14.5 0.00 0.00 0.00 61 1034.4
20260503011704 17 28 9.7 14.5 0.00 0.00 0.00 59 1034.7
20260503011204 17 28 9.7 12.9 0.00 0.00 0.00 63 1034.7
20260503010704 17 316 4.8 8.0 0.00 0.00 0.00 64 1034.9
20260503010205 17 297 3.2 12.9 0.00 0.00 0.00 66 1034.8
20260503005704 17 330 4.8 12.9 0.00 0.00 0.00 64 1034.9
20260503005204 17 281 3.2 8.0 0.00 0.00 0.00 69 1034.9
20260503004204 17 340 6.4 9.7 0.00 0.00 0.00 64 1035.0
20260503003705 17 279 4.8 11.3 0.00 0.00 0.00 68 1035.2
20260503003204 17 315 8.0 12.9 0.00 0.00 0.00 64 1035.4
20260503002704 17 327 8.0 11.3 0.00 0.00 0.00 65 1035.2
20260503002204 17 340 4.8 19.3 0.00 0.00 0.00 65 1035.3
20260503001704 17 327 3.2 9.7 0.00 0.00 0.00 71 1035.5
20260503001204 17 304 4.8 11.3 0.00 0.00 0.00 72 1035.3
20260503000705 16 323 4.8 14.5 0.00 0.00 0.00 69 1035.7
20260503000204 17 339 3.2 11.3 0.00 0.00 0.00 70 1035.6
20260502235703 16 326 4.8 9.7 0.00 0.00 0.00 73 1035.8
20260502235204 16 330 8.0 11.3 0.00 0.00 0.00 71 1035.7
20260502234704 16 351 4.8 8.0 0.00 0.00 0.00 73 1035.9
20260502234204 16 332 6.4 9.7 0.00 0.00 0.00 74 1036.1
20260502233704 16 320 8.0 12.9 0.00 0.00 0.00 74 1036.2
20260502233203 16 327 9.7 12.9 0.00 0.00 0.00 76 1036.1
20260502232704 16 339 4.8 9.7 0.00 0.00 0.00 74 1036.2
20260502232205 15 316 4.8 9.7 0.00 0.00 0.00 78 1036.0
20260502231704 15 309 4.8 9.7 0.00 0.00 0.00 80 1036.1
20260502231204 15 320 3.2 8.0 0.00 0.00 0.00 78 1036.2
20260502230704 15 309 4.8 8.0 0.00 0.00 0.00 80 1036.0
20260502230204 14 19 4.8 9.7 0.00 0.00 0.00 78 1036.2
20260502225704 14 340 4.8 8.0 0.00 0.00 0.00 80 1036.3
20260502224704 13 333 4.8 8.0 0.00 0.00 0.00 81 1036.3
20260502224204 13 328 4.8 9.7 0.00 0.00 0.00 83 1036.4
20260502223704 13 322 3.2 8.0 0.00 0.00 0.00 84 1036.3
20260502223204 13 344 3.2 9.7 0.00 0.00 0.00 83 1036.3
20260502222703 12 332 4.8 8.0 0.00 0.00 0.00 84 1036.4
20260502222204 12 299 4.8 8.0 0.00 0.00 0.00 84 1036.3
20260502221706 12 322 3.2 8.0 0.00 0.00 0.00 87 1036.3
20260502220704 12 332 3.2 4.8 0.00 0.00 0.00 85 1036.4
20260502220204 11 334 3.2 4.8 0.00 0.00 0.00 86 1036.4
20260502215704 11 351 0.0 8.0 0.00 0.00 0.00 87 1036.2
20260502214704 10 309 6.4 9.7 0.00 0.00 0.00 88 1036.3
20260502214204 11 319 6.4 9.7 0.00 0.00 0.00 87 1036.2
20260502213704 10 304 4.8 11.3 0.00 0.00 0.00 89 1036.4
20260502213203 10 310 4.8 11.3 0.00 0.00 0.00 90 1036.2
20260502212704 10 309 8.0 12.9 0.00 0.00 0.00 89 1036.3
20260502212204 10 324 4.8 9.7 0.00 0.00 0.00 90 1036.3
20260502211704 9 341 6.4 9.7 0.00 0.00 0.00 91 1036.3
20260502211204 9 312 6.4 9.7 0.00 0.00 0.00 92 1036.5
20260502210704 8 340 6.4 8.0 0.00 0.00 0.00 93 1036.5
20260502205704 7 334 3.2 4.8 0.00 0.00 0.00 94 1036.3
20260502205204 7 347 1.6 3.2 0.00 0.00 0.00 95 1036.5
20260502204704 7 319 3.2 4.8 0.00 0.00 0.00 96 1036.3